Location: Namasale
(1.5000°N, 32.6167°E)
Time: 18:13:06
(UTC+00:00)

Courier 1B - Pass Details

Date: 27 April 2021
Orbit: 962 x 1209 km, 28.3° (Epoch: 18 May)

Event Time Altitude Azimuth Distance (km) Brightness Sun altitude
Rises 15:02:55 0° 301° (WNW) 3,628 12.1 11.1°
Reaches altitude 10° 15:05:32 10° 302° (WNW) 2,682 11.6 10.5°
Maximum altitude 15:12:01 85° 31° (NNE) 975 7.7 8.9°
Drops below altitude 10° 15:18:41 10° 119° (ESE) 2,763 9.3 7.3°
Sets 15:21:25 0° 119° (ESE) 3,744 9.9 6.6°
